Content
SEND FEEDBACK

Daily
Averages
Monthly
Summary
United States of America

BARRINGTON, ILLINOIS


Home > North America > United States > Illinois
Elevation: 810 feet     Latitude: 42 10N     Longitude: 088 09W

WEATHER
 
SELECT A DAY
Number of Records: 196,484;   Date Range: 1/1/95 - 7/22/14
 
SHARE

PRINT THIS DATA

[ ← Previous Day ]
WEATHER ALMANAC - JANUARY 9, 2013
[ Next Day → ]
[ °C ]   °F
Weather ElementAverageHighLow
Temperature39.1 °F48.9 °F (12:51 pm)30.9 °F (11:51 pm)
Dewpoint25.3 °F30.9 °F (1:51 am)19 °F (2:51 pm)
Humidity59.9 %82 % (7:51 am)32 % (1:51 pm)
Barometer30.27 in30.49 in (11:51 pm)30.01 in (1:51 am)
Wind Speed14 mph26.5 mph (12:51 pm)
Wind Gust38 mph (12:51 pm)
Weather ElementAverage
Visibility10 mi
Wind DirectionWSW (253.5 °)

Weather ElementTotal
Precipitation---
Heating Degree Days25.1 (Base 65)
Averaged from 23 records on January 9, 2013
WEATHER CONDITIONS BREAKOUT
WIND DIRECTION BREAKOUT
WEATHER BY HOUR - JANUARY 9, 2013
[ °C ]   °F
Local TimeTemperatureDewpointHumidityBarometerVisibilityWind DirectionWind SpeedGust SpeedPrecipitationEventsConditions
1:51 AM41.0 °F30.9 °F67 %30.01 in10.0 miSW (220°)17.3 mph24.2 mph0.00 inMostly Cloudy
2:51 AM41.0 °F30.0 °F65 %30.02 in10.0 miWSW (240°)16.1 mph25.3 mphScattered Clouds
3:51 AM39.0 °F30.0 °F70 %30.04 in10.0 miWSW (250°)16.1 mph27.6 mphPartly Cloudy
4:51 AM36.0 °F30.0 °F79 %30.07 in10.0 miWSW (250°)15.0 mph23.0 mphClear
5:51 AM36.0 °F30.0 °F79 %30.11 in10.0 miWest (270°)13.8 mph21.9 mphClear
6:51 AM35.1 °F28.9 °F78 %30.16 in10.0 miWest (270°)11.5 mphPartly Cloudy
7:51 AM34.0 °F28.9 °F82 %30.19 in10.0 miWSW (250°)10.4 mphPartly Cloudy
8:51 AM36.0 °F28.9 °F76 %30.21 in10.0 miWSW (240°)13.8 mphPartly Cloudy
9:51 AM39.0 °F30.0 °F70 %30.25 in10.0 miWSW (250°)16.1 mph19.6 mphPartly Cloudy
10:51 AM45.0 °F28.9 °F53 %30.24 in10.0 miWSW (240°)19.6 mph25.3 mphPartly Cloudy
11:51 AM48.2 °F26.6 °F43 %30.23 in10.0 miWest (270°)18.4 mph27.6 mphPartly Cloudy
12:51 PM48.9 °F23.0 °F36 %30.26 in10.0 miWest (270°)26.5 mph38.0 mphPartly Cloudy
1:51 PM48.2 °F19.4 °F32 %30.27 in10.0 miWest (270°)26.5 mph38.0 mphScattered Clouds
2:51 PM46.0 °F19.0 °F34 %30.32 in10.0 miWest (280°)25.3 mph34.5 mphMostly Cloudy
3:51 PM44.1 °F19.9 °F38 %30.36 in10.0 miWNW (290°)19.6 mph32.2 mphMostly Cloudy
4:51 PM41.0 °F21.0 °F45 %30.40 in10.0 miWest (280°)11.5 mph19.6 mphMostly Cloudy
5:51 PM39.0 °F21.9 °F50 %30.43 in10.0 miWest (280°)11.5 mphMostly Cloudy
6:51 PM37.0 °F21.9 °F54 %30.44 in10.0 miWNW (290°)9.2 mphScattered Clouds
7:51 PM35.1 °F23.0 °F61 %30.44 in10.0 miNW (320°)6.9 mphScattered Clouds
8:51 PM35.1 °F23.0 °F61 %30.44 in10.0 miNW (320°)9.2 mphPartly Cloudy
9:51 PM32.0 °F21.9 °F66 %30.45 in10.0 miCalmPartly Cloudy
10:51 PM32.0 °F21.9 °F66 %30.48 in10.0 miWSW (240°)4.6 mphPartly Cloudy
11:51 PM30.9 °F23.0 °F72 %30.49 in10.0 miWSW (240°)3.5 mphPartly Cloudy
Hourly data recorded from KORD, located miles away from Barrington, Illinois







STORIES FROM OUR PARTNERS